EW7704 Weather Reports


time (UTC)temp
C
wind
direction
speed
KPH
gust
KPH
rain 1hr
cm
rain 24hr
cm
rain mn
cm
humidity
%
barometer
mb
20260505093040 5 360 4.8 14.5 0.08 0.33 0.18 91 1007.6
20260505092535 5 360 4.8 14.5 0.08 0.33 0.18 91 1007.5
20260505092035 5 360 1.6 12.9 0.05 0.30 0.15 91 1007.4
20260505091535 5 360 1.6 14.5 0.05 0.30 0.15 90 1007.7
20260505091035 5 360 3.2 17.7 0.05 0.30 0.15 90 1007.6
20260505090533 5 360 4.8 17.7 0.03 0.28 0.13 90 1007.6
20260505090042 5 360 3.2 12.9 0.05 0.28 0.13 90 1007.6
20260505085532 5 360 6.4 17.7 0.05 0.28 0.13 90 1007.3
20260505085032 5 360 3.2 17.7 0.05 0.28 0.13 90 1007.3
20260505084532 5 360 6.4 14.5 0.05 0.28 0.13 91 1007.2
20260505084032 5 360 4.8 14.5 0.08 0.28 0.13 91 1007.1
20260505083530 5 360 4.8 14.5 0.08 0.25 0.10 92 1007.1
20260505083030 5 360 4.8 20.9 0.08 0.25 0.10 92 1007.0
20260505082530 5 360 4.8 20.9 0.08 0.25 0.10 92 1007.1
20260505082030 5 360 8.0 19.3 0.08 0.25 0.10 92 1007.1
20260505081533 6 360 8.0 22.5 0.10 0.25 0.10 92 1007.1
20260505081027 6 360 8.0 22.5 0.10 0.25 0.10 92 1007.0
20260505080526 6 360 3.2 9.7 0.10 0.25 0.10 92 1006.9
20260505080024 6 360 3.2 9.7 0.08 0.23 0.08 92 1006.9
20260505075523 6 360 3.2 17.7 0.08 0.23 0.08 92 1006.9
20260505075023 6 360 4.8 17.7 0.08 0.23 0.08 91 1007.1
20260505074522 6 360 3.2 9.7 0.08 0.23 0.08 91 1007.0
20260505074021 6 360 4.8 12.9 0.05 0.20 0.05 90 1007.1
20260505073519 7 360 4.8 12.9 0.03 0.18 0.03 90 1007.0
20260505073029 7 360 1.6 8.0 0.03 0.18 0.03 90 1007.0
20260505072523 7 360 1.6 8.0 0.03 0.18 0.03 89 1007.0
20260505072016 7 360 1.6 6.4 0.00 0.15 0.00 88 1007.0
20260505071519 8 360 1.6 8.0 0.00 0.15 0.00 89 1006.9
20260505071013 9 360 1.6 8.0 0.00 0.15 0.00 90 1006.7
20260505070513 9 360 1.6 4.8 0.00 0.15 0.00 91 1006.7
20260505070011 9 360 0.0 3.2 0.00 0.15 0.00 91 1006.7
20260505065509 9 360 0.0 3.2 0.00 0.15 0.00 91 1006.6
20260505065008 9 360 0.0 1.6 0.00 0.15 0.00 91 1006.6
20260505064518 9 360 0.0 1.6 0.00 0.15 0.00 90 1006.5
20260505064005 9 360 0.0 3.2 0.00 0.15 0.00 90 1006.4
20260505063503 9 360 0.0 4.8 0.00 0.15 0.00 90 1006.3
20260505063003 8 360 0.0 4.8 0.00 0.15 0.00 90 1006.1
20260505062503 9 360 1.6 4.8 0.00 0.15 0.00 90 1006.1
20260505062100 9 360 1.6 3.2 0.00 0.15 0.00 89 1006.2
20260505061608 9 360 0.0 1.6 0.00 0.15 0.00 90 1006.3
20260505061058 9 360 0.0 3.2 0.00 0.15 0.00 89 1006.2
20260505060557 9 360 0.0 3.2 0.00 0.15 0.00 89 1006.1
20260505060057 9 360 0.0 1.6 0.00 0.15 0.00 89 1006.0
20260505055557 8 360 0.0 1.6 0.00 0.15 0.15 89 1005.9
20260505055056 8 360 0.0 1.6 0.00 0.15 0.15 89 1005.9
20260505054625 8 360 0.0 4.8 0.00 0.15 0.15 89 1005.8
20260505054055 9 360 1.6 3.2 0.00 0.15 0.15 89 1005.7
20260505053555 9 360 0.0 3.2 0.00 0.15 0.15 89 1005.7
20260505053107 8 360 0.0 3.2 0.00 0.15 0.15 89 1005.7
20260505052556 8 360 0.0 3.2 0.00 0.15 0.15 89 1005.7
20260505052055 8 360 0.0 3.2 0.00 0.15 0.15 89 1005.9
20260505051555 8 360 0.0 3.2 0.00 0.15 0.15 89 1005.7
20260505051055 8 360 0.0 3.2 0.00 0.15 0.15 89 1005.8
20260505050553 8 360 0.0 4.8 0.00 0.15 0.15 89 1005.8
20260505041558 9 360 3.2 8.0 0.08 0.15 0.15 90 1005.8
20260505041051 9 360 1.6 6.4 0.08 0.15 0.15 90 1005.9
20260505040550 9 360 0.0 4.8 0.10 0.15 0.15 90 1005.7
20260505040050 9 360 0.0 8.0 0.13 0.15 0.15 90 1005.7
20260505035549 9 360 0.0 8.0 0.13 0.15 0.15 89 1005.5
20260505035048 9 360 1.6 8.0 0.13 0.13 0.13 89 1005.5
20260505034548 9 360 1.6 8.0 0.13 0.13 0.13 88 1005.5
20260505034049 9 360 3.2 8.0 0.10 0.10 0.10 88 1005.6
20260505033549 9 360 3.2 12.9 0.08 0.08 0.08 88 1005.7
20260505033049 9 360 3.2 8.0 0.08 0.08 0.08 87 1005.6
20260505032548 9 360 1.6 8.0 0.08 0.08 0.08 87 1005.5
20260505032045 9 360 1.6 6.4 0.08 0.08 0.08 87 1005.4
20260505031604 9 360 1.6 8.0 0.08 0.08 0.08 86 1005.4
20260505030514 10 360 3.2 9.7 0.08 0.08 0.08 83 1005.3
20260505030015 10 360 3.2 9.7 0.05 0.05 0.05 81 1005.1
20260505025513 10 360 3.2 9.7 0.03 0.03 0.03 79 1005.0
20260505025014 10 360 3.2 9.7 0.03 0.03 0.03 77 1004.8
20260505024519 11 360 1.6 6.4 0.00 0.00 0.00 76 1004.6
20260505024009 11 360 0.0 6.4 0.00 0.00 0.00 75 1004.6
20260505023510 11 360 0.0 3.2 0.00 0.00 0.00 73 1004.6
20260505023011 11 360 1.6 3.2 0.00 0.00 0.00 71 1004.6
20260505022507 11 360 0.0 4.8 0.00 0.00 0.00 69 1004.4
20260505022008 11 360 1.6 4.8 0.00 0.00 0.00 69 1004.4
20260505021509 11 360 1.6 4.8 0.00 0.00 0.00 68 1004.3
20260505021011 11 360 0.0 4.8 0.00 0.00 0.00 66 1004.3
20260505020505 11 360 1.6 6.4 0.00 0.00 0.00 65 1004.4
20260505020013 11 360 3.2 6.4 0.00 0.00 0.00 66 1004.4
20260505015508 12 360 1.6 8.0 0.00 0.00 0.00 66 1004.3
20260505015004 12 360 1.6 8.0 0.00 0.00 0.00 65 1004.3
20260505014505 12 360 1.6 8.0 0.00 0.00 0.00 65 1004.0
20260505014004 12 360 3.2 8.0 0.00 0.00 0.00 65 1003.9
20260505013504 12 360 3.2 9.7 0.00 0.00 0.00 64 1003.8
20260505013004 12 360 4.8 12.9 0.00 0.00 0.00 63 1003.8
20260505012504 12 360 4.8 12.9 0.00 0.00 0.00 62 1003.9
20260505012004 12 254 3.2 11.3 0.00 0.00 0.00 62 1003.7
20260505011503 12 205 4.8 11.3 0.00 0.00 0.00 61 1003.7
20260505011004 13 194 3.2 14.5 0.00 0.00 0.00 60 1003.9
20260505010503 13 275 3.2 12.9 0.00 0.00 0.00 56 1003.6
20260505010003 14 224 3.2 9.7 0.00 0.00 0.00 54 1003.5
20260505005503 14 250 1.6 6.4 0.00 0.00 0.00 52 1003.4
20260505005002 14 262 0.0 4.8 0.00 0.00 0.00 52 1003.3
20260505004502 15 228 1.6 9.7 0.00 0.00 0.00 52 1003.4
20260505004103 15 189 1.6 9.7 0.00 0.00 0.00 52 1003.4
20260505003502 15 248 1.6 6.4 0.00 0.00 0.00 52 1003.4
20260505003001 15 81 1.6 8.0 0.00 0.00 0.00 51 1003.3
20260505002501 15 223 1.6 8.0 0.00 0.00 0.00 51 1003.3
20260505002003 15 275 0.0 4.8 0.00 0.00 0.00 52 1003.2
20260505001501 15 107 1.6 6.4 0.00 0.00 0.00 52 1003.0
20260505001001 15 348 0.0 6.4 0.00 0.00 0.00 52 1003.1
20260505000600 15 67 1.6 4.8 0.00 0.00 0.00 51 1003.2
20260505000117 15 82 1.6 9.7 0.00 0.00 0.00 51 1003.0
20260504235600 15 84 3.2 9.7 0.00 0.00 0.00 50 1003.0
20260504235100 15 348 1.6 6.4 0.00 0.00 0.00 51 1003.0
20260504234600 15 259 1.6 6.4 0.00 0.00 0.00 52 1002.9
20260504234100 14 281 1.6 8.0 0.00 0.00 0.00 55 1002.9
20260504233559 14 270 1.6 8.0 0.00 0.00 0.00 58 1003.0
20260504233101 14 275 3.2 11.3 0.00 0.00 0.00 59 1003.0
20260504232600 15 276 3.2 14.5 0.00 0.00 0.00 55 1003.0
20260504232100 16 222 3.2 14.5 0.00 0.00 0.00 52 1002.7
20260504231559 16 249 3.2 11.3 0.00 0.00 0.00 49 1002.9
20260504231058 16 229 4.8 11.3 0.00 0.00 0.00 47 1002.7
20260504230558 16 244 1.6 9.7 0.00 0.00 0.00 47 1002.6
20260504230107 16 233 3.2 8.0 0.00 0.00 0.00 46 1002.5
20260504225557 16 217 1.6 6.4 0.00 0.00 0.00 44 1002.5
20260504225057 16 209 3.2 8.0 0.00 0.00 0.00 42 1002.5
20260504224558 16 263 3.2 8.0 0.00 0.00 0.00 41 1002.3
20260504224057 17 243 1.6 6.4 0.00 0.00 0.00 39 1002.1
20260504223557 17 251 1.6 6.4 0.00 0.00 0.00 39 1001.9
20260504223104 17 280 1.6 6.4 0.00 0.00 0.00 37 1001.8
20260504222558 17 30 0.0 8.0 0.00 0.00 0.00 37 1001.7
20260504222056 17 31 3.2 9.7 0.00 0.00 0.00 36 1001.7
20260504221604 17 18 4.8 12.9 0.00 0.00 0.00 36 1001.3
20260504221056 17 40 3.2 12.9 0.00 0.00 0.00 37 1001.2
20260504220556 17 348 3.2 12.9 0.00 0.00 0.00 37 1001.1
20260504220059 17 38 4.8 14.5 0.00 0.00 0.00 40 1001.1
20260504215557 17 11 4.8 14.5 0.00 0.00 0.00 40 1001.2
20260504215054 17 307 4.8 11.3 0.00 0.00 0.00 40 1001.3
20260504214557 18 136 3.2 14.5 0.00 0.00 0.00 42 1001.5
20260504214054 17 101 3.2 16.1 0.00 0.00 0.00 43 1001.7
20260504213553 17 334 4.8 9.7 0.00 0.00 0.00 40 1001.9
20260504213154 16 196 3.2 19.3 0.00 0.00 0.00 44 1002.0
20260504212553 17 243 6.4 19.3 0.00 0.00 0.00 47 1002.1
20260504212055 17 330 3.2 17.7 0.00 0.00 0.00 42 1002.1
20260504211552 16 269 3.2 8.0 0.00 0.00 0.00 48 1002.3
20260504211052 15 225 3.2 8.0 0.00 0.00 0.00 50 1002.6
20260504210555 15 224 1.6 16.1 0.00 0.00 0.00 53 1002.5
20260504210053 16 209 8.0 17.7 0.00 0.00 0.00 44 1002.4
20260504205552 16 98 4.8 17.7 0.00 0.00 0.00 42 1002.2
20260504205052 17 105 4.8 16.1 0.00 0.00 0.00 40 1002.1
20260504204550 18 212 3.2 16.1 0.00 0.00 0.00 30 1001.8
20260504204050 18 172 4.8 16.1 0.00 0.00 0.00 28 1001.5
20260504203553 18 238 4.8 19.3 0.00 0.00 0.00 28 1001.1
20260504203100 19 19 6.4 22.5 0.00 0.00 0.00 28 1000.7
20260504202549 20 249 9.7 22.5 0.00 0.00 0.00 26 1000.2
20260504202049 21 360 4.8 22.5 0.00 0.00 0.00 25 1000.2
20260504201550 22 12 3.2 12.9 0.00 0.00 0.00 21 1000.3
20260504201050 22 9 4.8 12.9 0.00 0.00 0.00 22 1000.5
20260504200548 22 14 3.2 14.5 0.00 0.00 0.00 23 1000.4
20260504200048 22 360 4.8 14.5 0.00 0.00 0.00 24 1000.4
20260504195548 22 13 6.4 17.7 0.00 0.00 0.00 24 1000.5
20260504195047 23 13 4.8 17.7 0.00 0.00 0.00 23 1000.4
20260504194548 23 17 4.8 12.9 0.00 0.00 0.00 22 1000.3
20260504194047 23 15 4.8 12.9 0.00 0.00 0.00 22 1000.4
20260504193546 23 14 3.2 9.7 0.00 0.00 0.00 21 1000.3
20260504193046 23 16 3.2 12.9 0.00 0.00 0.00 21 1000.3
20260504192545 23 13 4.8 14.5 0.00 0.00 0.00 21 1000.3
20260504192045 23 16 4.8 16.1 0.00 0.00 0.00 21 1000.3
20260504191545 23 19 4.8 16.1 0.00 0.00 0.00 19 1000.3
20260504191044 24 219 6.4 16.1 0.00 0.00 0.00 20 1000.2
20260504190543 25 235 4.8 16.1 0.00 0.00 0.00 20 1000.2
20260504190042 25 211 4.8 16.1 0.00 0.00 0.00 19 1000.4
20260504185540 24 223 4.8 14.5 0.00 0.00 0.00 20 1000.4
20260504185039 24 191 6.4 14.5 0.00 0.00 0.00 22 1000.4
20260504184538 23 205 6.4 17.7 0.00 0.00 0.00 21 1000.6
20260504184037 23 217 6.4 16.1 0.00 0.00 0.00 23 1000.6
20260504183537 22 239 6.4 14.5 0.00 0.00 0.00 23 1000.7
20260504183036 22 360 4.8 14.5 0.00 0.00 0.00 24 1000.9
20260504182534 22 252 8.0 16.1 0.00 0.00 0.00 23 1000.9
20260504182033 22 188 6.4 16.1 0.00 0.00 0.00 23 1001.1
20260504181534 23 201 4.8 25.7 0.00 0.00 0.00 23 1001.2
20260504181032 23 232 6.4 16.1 0.00 0.00 0.00 23 1001.3
20260504180532 23 233 9.7 16.1 0.00 0.00 0.00 22 1001.4
20260504180030 23 190 4.8 14.5 0.00 0.00 0.00 25 1001.5
20260504175529 22 199 4.8 12.9 0.00 0.00 0.00 24 1001.6
20260504175028 22 207 4.8 14.5 0.00 0.00 0.00 26 1001.8
20260504174527 22 227 8.0 14.5 0.00 0.00 0.00 25 1001.9
20260504174026 21 201 6.4 20.9 0.00 0.00 0.00 26 1001.9
20260504173525 21 215 8.0 20.9 0.00 0.00 0.00 25 1001.9
20260504173123 21 205 8.0 20.9 0.00 0.00 0.00 26 1001.9
20260504172526 21 220 8.0 32.2 0.00 0.00 0.00 26 1001.8
20260504172024 21 266 9.7 16.1 0.00 0.00 0.00 26 1001.9
20260504171522 21 268 4.8 16.1 0.00 0.00 0.00 26 1001.8
20260504171021 21 201 6.4 17.7 0.00 0.00 0.00 27 1001.9
20260504170523 20 241 6.4 17.7 0.00 0.00 0.00 27 1002.0
20260504151057 16 213 3.2 6.4 0.00 0.00 0.00 35 1002.4
20260504150555 16 218 3.2 8.0 0.00 0.00 0.00 35 1002.4
20260504141042 10 141 0.0 3.2 0.00 0.00 0.00 51 1002.7
20260504140545 10 150 0.0 3.2 0.00 0.00 0.00 51 1002.7
20260504130541 7 360 0.0 3.2 0.00 0.00 0.00 58 1002.8
20260504110528 4 360 0.0 0.0 0.00 0.00 0.00 56 1002.8
20260504100521 4 360 0.0 1.6 0.00 0.00 0.00 57 1003.1